Volver al catálogo

FREGAT DEB

ActivoUNKNOWN
NORAD 45843·DEBRIS·🇷🇺 Russia

Lanzado Jul 18, 2011 desde Baikonur Cosmodrome

Loading…

Próximos Pases (próximas 24 horas)

TLE

ActualizadoSource: Space-Track

Época: Sep 14, 2026, 09:09 UTC

1 45843U 11037CD  26257.38125553  .00002107  00000-0  18181-1 0  9990
2 45843  51.2297 258.0772 1702859 171.1332 192.4037 10.26762891 53818

Sigue FREGAT DEB en tiempo real con AllMySat

Download on the App Store